Flag for United Kingdom Weather past 2 weeks in Carlisle, England, United Kingdom

Now
38 °F

Chilly.


Feels Like: N/A
Forecast: 35 / 45 °F
Wind: N/A

Location: Carlisle

Current Time: Feb 27, 2015 at 5:04:11 AM

Latest Report: Feb 27, 2015 at 4:00 AM


Visibility: 22 mi

Pressure: 29.93 "Hg

Humidity: 88%

Dew point: 35 °F

Location of CarlisleLocation

Historic Weather in Carlisle — Graph

°F

Carlisle temperature yesterday

Maximum temperature yesterday: 52 °F (at 1:00 AM)
Minimum temperature yesterday: 38 °F (at 10:00 PM)
Average temperature yesterday: 44 °F

Past Weeks' High & Low Weather Summary

 TemperatureHumidityPressure
High52 °F (Feb 26, 1:00 AM)100% (Feb 12, 1:00 AM)30.55 "Hg (Feb 12, 1:00 AM)
Low32 °F (Feb 17, 4:00 AM)66% (Feb 15, 2:00 PM)28.79 "Hg (Feb 23, 5:00 PM)
Average42 °F92%29.74 "Hg
* Reported Feb 12 1:00 AM — Feb 27 1:00 AM, Carlisle, Weather by CustomWeather, © 2015

Note: Actual official high and low records may vary slightly from our data, if they occured in-between our weather recording intervals... More about our weather records

Advertising

Carlisle weather history for previous 24 hours

 ConditionsComfort  
Time TempWeatherWind HumidityBarometerVisibility
1:00 AM
Fri, Feb 27
38 °FChilly.N/A89%29.90 "Hg22 mi
12:00 AM37 °FChilly.N/A90%29.89 "Hg19 mi
11:00 PM
Thu, Feb 26
38 °FChilly.N/A85%29.88 "Hg22 mi
10:00 PM38 °FChilly.N/A85%29.85 "Hg19 mi
9:00 PM39 °FChilly.N/A82%29.86 "Hg22 mi
8:00 PM39 °FChilly.N/A86%29.85 "Hg19 mi
7:00 PM39 °FChilly.N/A83%29.83 "Hg19 mi
6:00 PM39 °FChilly.N/A84%29.82 "Hg28 mi
5:00 PM40 °FQuite cool.N/A82%29.79 "Hg19 mi
4:00 PM41 °FQuite cool.N/A78%29.77 "Hg25 mi
3:00 PM44 °FQuite cool.N/A70%29.75 "Hg19 mi
2:00 PM45 °FQuite cool.N/A72%29.73 "Hg17 mi
1:00 PM45 °FCool.N/A78%29.72 "Hg19 mi
12:00 PM44 °FQuite cool.N/A84%29.72 "Hg25 mi
11:00 AM44 °FQuite cool.N/A83%29.70 "Hg19 mi
10:00 AM44 °FQuite cool.N/A97%29.67 "Hg14 mi
9:00 AM42 °FQuite cool.N/A100%29.66 "Hg12 mi
8:00 AM45 °FCool.N/A100%29.62 "Hg3 mi
7:00 AM50 °FCool.N/A100%29.56 "Hg8 mi
Weather by CustomWeather, © 2015

See weather overviewHow to use our weather pages